Location: Unspecified
(0.0000°N, 0.0000°E)
Time: 12:50:07
(UTC+00:00)

Altair - All Passes

Search period start: 01 August 2021 00:00
Search period end: 11 August 2021 00:00
Orbit: 1502 x 1682 km, 47.2° (Epoch: 31 July)

Date Brightness Start Highest point End Pass type
(mag) Time Alt. Az. Time Alt. Az. Time Alt. Az.
01 Aug - 08:24:18 10° N 08:29:48 17° NE 08:35:22 10° E daylight
01 Aug - 10:25:10 10° NW 10:34:31 90° SW 10:44:16 10° SE daylight
01 Aug - 12:33:40 10° W 12:39:31 18° SW 12:45:33 10° S daylight
01 Aug - 21:11:14 10° SSW 21:20:29 41° SE 21:29:24 10° ENE visible
01 Aug - 23:15:52 10° WSW 23:25:05 44° NW 23:34:01 10° NNE night (unlit)
02 Aug - 07:59:57 10° NNE 08:04:33 15° NE 08:09:12 10° ENE daylight
02 Aug - 10:00:03 10° NW 10:09:21 82° NE 10:19:03 10° SE daylight
02 Aug - 12:07:47 10° W 12:14:15 20° SW 12:20:55 10° S daylight
02 Aug - 20:46:15 10° SSW 20:55:15 37° SE 21:03:57 10° ENE visible
02 Aug - 22:50:25 10° WSW 22:59:54 50° NW 23:09:04 10° NNE night (unlit)
03 Aug - 07:35:54 10° NNE 07:39:17 12° NE 07:42:41 10° ENE daylight
03 Aug - 09:34:57 10° NNW 09:44:12 74° NE 09:53:48 10° SE daylight
03 Aug - 11:42:01 10° W 11:48:59 23° SW 11:56:11 10° S daylight
03 Aug - 20:21:19 10° SSW 20:30:01 33° SE 20:38:27 10° ENE visible
03 Aug - 22:25:01 10° SW 22:34:43 56° NW 22:44:04 10° NNE visible
04 Aug - 07:13:00 10° NE 07:14:00 10° NE 07:14:59 10° NE daylight
04 Aug - 09:09:54 10° NNW 09:19:02 66° NE 09:28:32 10° SE daylight
04 Aug - 11:16:21 10° W 11:23:44 26° SW 11:31:24 10° S daylight
04 Aug - 19:56:25 10° S 20:04:46 29° SE 20:12:52 10° ENE visible
04 Aug - 21:59:40 10° SW 22:09:32 62° NW 22:19:02 10° NNE visible
05 Aug - 08:44:52 10° NNW 08:53:53 58° NE 09:03:13 10° SE daylight
05 Aug - 10:50:46 10° WNW 10:58:30 29° SW 11:06:33 10° S daylight
05 Aug - 19:31:34 10° S 19:39:30 26° SE 19:47:14 10° E visible
05 Aug - 21:34:21 10° SW 21:44:20 70° NW 21:53:58 10° NNE visible
05 Aug - 23:46:08 10° WNW 23:49:26 12° NW 23:52:43 10° NNW night (unlit)
06 Aug - 08:19:52 10° NNW 08:28:44 52° NE 08:37:52 10° SE daylight
06 Aug - 10:25:14 10° WNW 10:33:18 33° SW 10:41:40 10° SSE daylight
06 Aug - 19:06:48 10° S 19:14:14 23° SE 19:21:30 10° E visible
06 Aug - 21:09:04 10° SW 21:19:09 77° NW 21:28:53 10° NE visible
06 Aug - 23:19:28 10° WNW 23:24:08 14° NW 23:28:46 10° NNW night (unlit)
07 Aug - 07:54:54 10° NNW 08:03:34 46° NE 08:12:29 10° ESE daylight
07 Aug - 09:59:46 10° WNW 10:08:05 37° SW 10:16:44 10° SSE daylight
07 Aug - 18:42:05 10° S 18:48:57 20° SE 18:55:41 10° E visible
07 Aug - 20:43:49 10° SW 20:53:58 86° NW 21:03:45 10° NE visible
07 Aug - 22:53:11 10° W 22:58:51 17° NW 23:04:28 10° N visible
08 Aug - 07:29:58 10° NNW 07:38:25 41° NE 07:47:03 10° ESE daylight
08 Aug - 09:34:21 10° WNW 09:42:53 42° SW 09:51:46 10° SSE daylight
08 Aug - 18:17:28 10° S 18:23:39 18° SE 18:29:44 10° E visible
08 Aug - 20:18:37 10° SW 20:28:46 86° SE 20:38:37 10° NE visible
08 Aug - 22:27:08 10° W 22:33:36 19° NW 22:39:58 10° N visible
09 Aug - 07:05:04 10° NNW 07:13:15 36° NE 07:21:34 10° ESE daylight
09 Aug - 09:08:59 10° WNW 09:17:43 47° SW 09:26:46 10° SSE daylight
09 Aug - 17:53:00 10° SSE 17:58:20 15° SE 18:03:36 10° ESE daylight
09 Aug - 19:53:25 10° SW 20:03:35 78° SE 20:13:25 10° NE visible
09 Aug - 22:01:12 10° W 22:08:20 22° NW 22:15:21 10° N visible
10 Aug - 06:40:12 10° N 06:48:04 32° NE 06:56:03 10° ESE daylight
10 Aug - 08:43:40 10° NW 08:52:32 52° SW 09:01:44 10° SSE daylight
10 Aug - 17:28:45 10° SSE 17:33:00 13° SE 17:37:12 10° ESE daylight
10 Aug - 19:28:16 10° SSW 19:38:23 71° SE 19:48:12 10° NE visible
10 Aug - 21:35:24 10° W 21:43:06 25° NW 21:50:39 10° N visible
